The Dalles, WA

7:52 AM PDT on October 20, 2017 (GMT -0700)
Columbia Gorge Regional-The Dalles

Weather History for KDLS - March, 2013

Change the Weather History Date:

Friday, March 1, 2013

  Actual Average Record
Temperature  
Mean Temperature 52 °F -  
Max Temperature 61 °F 50 °F 66 °F (1986)
Min Temperature 43 °F 33 °F 11 °F (1993)
Degree Days  
Heating Degree Days 12    
Growing Degree Days 2 (Base 50)    
Moisture  
Dew Point 45 °F    
Average Humidity 81    
Maximum Humidity 93    
Minimum Humidity 60    
Precipitation  
Precipitation 0.00 in - - ()
Sea Level Pressure  
Sea Level Pressure 30.39 in    
Wind  
Wind Speed 2 mph (WNW)    
Max Wind Speed 10 mph    
Max Gust Speed 17 mph    
Visibility 10 miles    
Events      
Averages and records for this station are not official NWS values.
T = Trace of Precipitation, MM = Missing Value Source: NWS Daily Summary

Daily Weather History Graph

Daily Weather History Graph

Search for Another Location

Airport or City:

Trip Planner

Search our weather history database for the weather conditions in past years. The results will help you decide how hot, cold, wet, or windy it might be!

Date:

Astronomy

Mar. 01, 2013 Rise Set
Actual Time 6:42 AM PST 5:52 PM PST
Civil Twilight 6:12 AM PST 6:21 PM PST
Nautical Twilight 5:38 AM PST 6:56 PM PST
Astronomical Twilight 5:04 AM PST 7:30 PM PST
Moon 10:48 PM PST (3/1) 8:17 AM PST (3/1)
Length of Visible Light 12h 09m
Length of Day
11h 09m
Waning Gibbous, 82% of the Moon is Illuminated
Mar 1
Waning Gibbous
Mar 4
Last Quarter
Mar 11
New
Mar 19
First Quarter
Mar 27
Full

Hourly Weather History & Observations

Time (PST) Temp. Windchill Dew Point Humidity Pressure Visibility Wind Dir Wind Speed Gust Speed Precip Events Conditions
12:53 AM 46.0 °F 43.9 °F 43.0 °F 89% 30.42 in 10.0 mi South 4.6 mph - N/A   Partly Cloudy
1:53 AM 46.9 °F - 44.1 °F 90% 30.41 in 10.0 mi Calm Calm - N/A   Overcast
2:53 AM 46.0 °F - 44.1 °F 93% 30.40 in 10.0 mi Calm Calm - N/A   Mostly Cloudy
4:53 AM 46.0 °F - 44.1 °F 93% 30.42 in 10.0 mi Calm Calm - N/A   Overcast
6:33 AM 46.4 °F - 44.6 °F 93% 30.41 in 10.0 mi Calm Calm - N/A   Overcast
7:24 AM 46.4 °F - 44.6 °F 93% 30.42 in 10.0 mi Calm Calm - N/A   Overcast
7:53 AM 46.9 °F - 43.0 °F 86% 30.43 in 10.0 mi SE 4.6 mph - N/A   Overcast
8:41 AM 50.0 °F - 44.6 °F 82% 30.43 in 10.0 mi Calm Calm - N/A   Mostly Cloudy
8:50 AM 51.8 °F - 46.4 °F 82% 30.43 in 10.0 mi Calm Calm - N/A   Mostly Cloudy
8:53 AM 50.0 °F - 45.0 °F 83% 30.43 in 10.0 mi Calm Calm - N/A   Mostly Cloudy
9:53 AM 51.1 °F - 46.0 °F 83% 30.43 in 10.0 mi Calm Calm - N/A   Clear
10:53 AM 57.0 °F - 48.0 °F 72% 30.41 in 10.0 mi Calm Calm - N/A   Mostly Cloudy
11:53 AM 57.0 °F - 48.9 °F 74% 30.41 in 10.0 mi WNW 4.6 mph - N/A   Overcast
1:53 PM 60.1 °F - 48.9 °F 67% 30.37 in 10.0 mi NW 10.4 mph - N/A   Scattered Clouds
2:53 PM 61.0 °F - 48.0 °F 62% 30.37 in 10.0 mi NNW 9.2 mph - N/A   Clear
3:53 PM 60.1 °F - 46.9 °F 62% 30.35 in 10.0 mi NW 6.9 mph - N/A   Partly Cloudy
4:53 PM 60.1 °F - 46.0 °F 60% 30.35 in 10.0 mi NW 8.1 mph 17.3 mph N/A   Clear
6:53 PM 54.0 °F - 45.0 °F 72% 30.33 in 10.0 mi West 5.8 mph - N/A   Clear
7:53 PM 52.0 °F - 45.0 °F 77% 30.33 in 10.0 mi West 3.5 mph - N/A   Clear
8:53 PM 51.1 °F - 44.1 °F 77% 30.33 in 10.0 mi Calm Calm - N/A   Clear
9:53 PM 46.9 °F - 43.0 °F 86% 30.33 in 10.0 mi Calm Calm - N/A   Clear
10:53 PM 44.1 °F - 42.1 °F 93% 30.33 in 10.0 mi Calm Calm - N/A   Clear
11:53 PM 43.0 °F - 41.0 °F 93% 30.32 in 10.0 mi Calm Calm - N/A   Clear